星链-5940 (STARLINK-5940 )

导读

STARLINK-5940是美国太空探索技术公司 SpaceX 星链(Starlink)星座的成员卫星,于2023年3月24日发射升空,属于星链互联网卫星组网计划的一部分,承担为全球提供低延迟、高速宽带互联网接入服务的任务,运行在近地轨道,是星链大规模星座部署中完成发射入轨的一颗卫星。

基本信息
目录编号:
56012
目录名称:
STARLINK-5940
国际标识:
2023-042AC
轨道中心:
EARTH
卫星名称:
星链-5940
卫星全名:
星链-5940 (STARLINK-5940 )
卫星状态:
在轨 (已飞行1260 天)
发射日期:
2023-03-24 UTC
国别 :
美国 (US)
星等 :
--
轨道信息
数据来源 国际轨道数据
星历时间: 2026-09-04T07:00:48+0800
13小时前
查看轨道信息
半长轴: 6861.263km
偏心率: 0.0001747
轨道倾角: 43.004°
近地点辐角 255.286°
升交点赤经 118.104°
平近点角 104.779°
近地点: 481.927km
远地点: 484.325km
周期: 94.268分钟
每日圈数: 15.275546
详细信息
固有亮度:
5
最大亮度:
2.5
卫星平台:
Starlink v1.5
覆盖范围:
全球
运营商:
太空探索技术公司
运营商所在国:
美国
制造商(研发单位):
太空探索技术公司
制造商所在国:
美国
使用方式:
暂无
卫星简介
星链(Starlink)计划是由太空探索技术公司(SpaceX)提出的一个巨型低轨卫星互联网星座项目,计划在2019年至2024年间在太空搭建由约1.2万颗卫星组成的“星链”网络,其中1584颗将部署在地球上空550千米处的近地轨道,并从2020年开始工作。该卫星仍在工作。
2D轨道图
3D轨道图
轨道高度分析图
轨道倾角分析图
轨道综合分析图
查看轨道综合分析图
交会数据列表
事件ID 空间交会对象 最接近时刻(TCA) 交会距离 交会风险概率(CRP) 交会风险指数(CRI) 操作
CDM_260905-030205-601206-299721
2026-09-05T
03:02:37+0000
0.231 km
中距离
5.524441E-4 高风险 0.9
CDM_260829-095705-601206-363722
2026-08-29T
09:57:05+0000
0.233 km
中距离
4.054433E-4 高风险 0.87
CDM_260906-021405-601205-909521
2026-09-06T
02:14:27+0000
0.290 km
中距离
4.001632E-4 高风险 0.87
CDM_260905-032905-601205-909521
2026-09-05T
03:29:10+0000
0.294 km
中距离
3.929123E-4 高风险 0.87
CDM_260906-030705-601206-363721
2026-09-06T
03:07:38+0000
0.251 km
中距离
3.636606E-4 高风险 0.86
CDM_260906-020605-601205-744321
2026-09-06T
02:06:58+0000
0.408 km
远距离
2.515417E-4 高风险 0.83
CDM_260905-111305-601205-744921
2026-09-05T
11:13:03+0000
0.499 km
远距离
1.619468E-4 高风险 0.79
CDM_260906-065005-601205-744921
2026-09-06T
06:50:00+0000
0.536 km
远距离
1.357331E-4 高风险 0.78
CDM_260905-203805-601206-783921
2026-09-05T
20:38:39+0000
0.601 km
远距离
9.997609E-5 中风险 0.75
CDM_260903-080605-323205-601221
2026-09-03T
08:06:12+0000
0.815 km
远距离
5.252067E-5 中风险 0.69